sat.trackr.live / text

‹ back to catalog

STARLINK-31854

NORAD 59671 · 2024-084T

PAYLOAD ACTIVE UNKNOWN

§ Identity

Operator
Country
US
Launch date
2024-05-06
Launch site
AFETR
Launch vehicle
Mass (kg)
RCS (m²)

Purposes: comms

External: N2YO · Heavens-Above · Gunter

§ Orbital elements

Epoch: 2026-09-21T06:49:35.222016Z

Period
94.27 min
Inclination
43.0037°
Eccentricity
0.0001406
Mean motion
15.27577122 rev/d
Perigee alt
482.1 km
Apogee alt
484.0 km
Semi-major
6,861.2 km
B*
4.3298e-5
RAAN
344.1523°
Arg perigee
272.5834°
Mean anomaly
87.4856°
Rev number
13,464

§ Raw data

STARLINK-318541 59671U 24084T   26264.28443544  .00000929  00000+0  43298-4 0  99992 59671  43.0037 344.1523 0001406 272.5834  87.4856 15.27577122134646

JSON: /api/v1/satellites/59671 · /tle

For live sub-satellite position, see the globe view (requires WebGL).

§ Visibility from observer

Set your observer location to see the next 7 days of passes ≥ 10°. The values pass through the URL so the page stays shareable.

No JS? Fill the form by hand. The geolocation button needs JavaScript.